sat.trackr.live / text

‹ back to catalog

STARLINK-35944

NORAD 66928 · 2025-286D

PAYLOAD ACTIVE UNKNOWN

§ Identity

Operator
Country
US
Launch date
2025-12-07
Launch site
AFWTR
Launch vehicle
Mass (kg)
RCS (m²)

Purposes: comms

External: N2YO · Heavens-Above · Gunter

§ Orbital elements

Epoch: 2026-09-20T10:33:06.730272Z

Period
93.85 min
Inclination
53.1561°
Eccentricity
0.0002249
Mean motion
15.34391502 rev/d
Perigee alt
461.2 km
Apogee alt
464.3 km
Semi-major
6,840.9 km
B*
1.8653e-4
RAAN
170.3281°
Arg perigee
76.7634°
Mean anomaly
283.3620°
Rev number
4,528

§ Raw data

STARLINK-359441 66928U 25286D   26263.43966123  .00005929  00000+0  18653-3 0  99972 66928  53.1561 170.3281 0002249  76.7634 283.3620 15.34391502 45282

JSON: /api/v1/satellites/66928 · /tle

For live sub-satellite position, see the globe view (requires WebGL).

§ Visibility from observer

Set your observer location to see the next 7 days of passes ≥ 10°. The values pass through the URL so the page stays shareable.

No JS? Fill the form by hand. The geolocation button needs JavaScript.